Flag for Spain Weather past 2 weeks in Córdoba, Spain

Now
93 °F

Passing clouds.


Feels Like: 91 °F
Forecast: 68 / 94 °F
Wind: 12 mph from Southwest

Location: Cordoba / Aeropuerto

Current Time: Jul 30, 2015 at 2:58:04 PM

Latest Report: Jul 30, 2015 at 2:00 PM


Visibility: N/A

Pressure: 29.83 "Hg

Humidity: 28%

Dew point: 55 °F

Location of CórdobaLocation

Historic Weather in Córdoba — Graph

°F

Córdoba temperature yesterday

Maximum temperature yesterday: 104 °F (at 5:00 PM)
Minimum temperature yesterday: 72 °F (at 7:00 AM)
Average temperature yesterday: 92 °F

Past Weeks' High & Low Weather Summary

 TemperatureHumidityPressure
High108 °F (Jul 16, 4:00 PM)73% (Jul 22, 7:00 AM)30.04 "Hg (Jul 22, 7:00 AM)
Low66 °F (Jul 24, 7:00 AM)10% (Jul 16, 6:00 PM)29.77 "Hg (Jul 29, 6:00 PM)
Average91 °F30%29.92 "Hg
* Reported Jul 15 1:00 PM — Jul 30 1:00 PM, Córdoba, Weather by CustomWeather, © 2015

Note: Actual official high and low records may vary slightly from our data, if they occured in-between our weather recording intervals... More about our weather records

Advertising

Córdoba weather history for previous 24 hours

 ConditionsComfort  
Time TempWeatherWind HumidityBarometerVisibility
1:00 PM
Thu, Jul 30
91 °FPassing clouds.13 mph32%29.86 "HgN/A
12:00 PM88 °FPassing clouds.5 mph38%29.86 "HgN/A
11:00 AM84 °FPassing clouds.5 mph43%29.86 "HgN/A
10:00 AM81 °FPassing clouds.5 mph48%29.86 "HgN/A
9:00 AM75 °FSunny.1 mph57%29.86 "Hg10 mi
8:00 AM72 °FClear.No wind61%29.86 "Hg10 mi
7:00 AM72 °FClear.No wind61%29.86 "Hg10 mi
10:00 PM
Wed, Jul 29
91 °FSunny.8 mph26%29.80 "Hg10 mi
9:00 PM97 °FPassing clouds.12 mph22%29.77 "HgN/A
8:00 PM100 °FSunny.10 mph21%29.77 "Hg10 mi
7:00 PM102 °FPassing clouds.13 mph15%29.77 "HgN/A
6:00 PM104 °FPassing clouds.12 mph13%29.77 "HgN/A
5:00 PM104 °FPassing clouds.10 mph16%29.80 "HgN/A
4:00 PM102 °FPassing clouds.12 mph17%29.80 "HgN/A
3:00 PM100 °FFog.10 mph18%29.83 "HgN/A
2:00 PM99 °FPassing clouds.8 mph22%29.86 "HgN/A
Weather by CustomWeather, © 2015

See weather overviewHow to use our weather pages